Weather History for Provincetown, MA

Change the Weather History Date:

Monday, October 17, 2011

  Actual Average Record
Temperature  
Mean Temperature 60 °F -  
Max Temperature 64 °F 57 °F 77 °F (1956)
Min Temperature 57 °F 46 °F 39 °F (2007)
Degree Days  
Heating Degree Days 4    
Growing Degree Days 10 (Base 50)    
Moisture  
Dew Point 46 °F    
Average Humidity 60    
Maximum Humidity 82    
Minimum Humidity 37    
Precipitation  
Precipitation 0.00 in - - ()
Sea Level Pressure  
Sea Level Pressure 29.67 in    
Wind  
Wind Speed 16 mph (WSW)    
Max Wind Speed 23 mph    
Max Gust Speed 30 mph    
Visibility 10 miles    
Events      
Averages and records for this station are not official NWS values.
T = Trace of Precipitation, MM = Missing Value Source: NWS Daily Summary

Daily Weather History Graph

Daily Weather History Graph

Search for Another Location

Airport:

Trip Planner

Search our weather history database for the weather conditions in past years. The results will help you decide how hot, cold, wet, or windy it might be!

Date:

Astronomy

Oct. 17, 2011 Rise Set
Actual Time 6:55 AM EDT 5:56 PM EDT
Civil Twilight 6:27 AM EDT 6:24 PM EDT
Nautical Twilight 5:54 AM EDT 6:57 PM EDT
Astronomical Twilight 5:22 AM EDT 7:29 PM EDT
Moon 9:30 PM EDT (10/17) 12:03 PM EDT (10/17)
Length of Visible Light 11h 57m
Length of Day
11h 01m
Waning Gibbous, 74% of the Moon is Illuminated
Oct 17
Waning Gibbous
Oct 19
Last Quarter
Oct 26
New
Nov 2
First Quarter
Nov 10
Full

Hourly Weather History & Observations

Time (EDT) Temp. Dew Point Humidity Pressure Visibility Wind Dir Wind Speed Gust Speed Precip Events Conditions
12:15 AM 62.6 °F 51.8 °F 68% 29.70 in 10.0 mi SSW 18.4 mph 21.9 mph N/A   Overcast
12:35 AM 62.6 °F 51.8 °F 68% 29.70 in 10.0 mi SSW 17.3 mph 24.2 mph N/A   Overcast
12:55 AM 62.6 °F 51.8 °F 68% 29.68 in 10.0 mi SSW 18.4 mph - N/A   Overcast
1:15 AM 62.6 °F 50.0 °F 63% 29.67 in 10.0 mi SSW 18.4 mph 24.2 mph N/A   Mostly Cloudy
1:35 AM 62.6 °F 51.8 °F 68% 29.66 in 10.0 mi SSW 16.1 mph 23.0 mph N/A   Mostly Cloudy
1:55 AM 62.6 °F 51.8 °F 68% 29.65 in 10.0 mi SSW 19.6 mph 24.2 mph N/A   Overcast
2:15 AM 62.6 °F 51.8 °F 68% 29.65 in 10.0 mi SSW 19.6 mph 26.5 mph N/A   Overcast
2:35 AM 60.8 °F 53.6 °F 77% 29.62 in 10.0 mi SSW 19.6 mph 27.6 mph N/A   Overcast
3:15 AM 62.6 °F 53.6 °F 72% 29.63 in 10.0 mi SW 23.0 mph 29.9 mph N/A   Overcast
3:35 AM 62.6 °F 53.6 °F 72% 29.62 in 10.0 mi SW 21.9 mph 28.8 mph N/A   Overcast
4:15 AM 62.6 °F 53.6 °F 72% 29.60 in 10.0 mi SW 18.4 mph 25.3 mph N/A   Overcast
4:35 AM 62.6 °F 55.4 °F 77% 29.62 in 10.0 mi SW 23.0 mph - N/A   Overcast
4:55 AM 62.6 °F 55.4 °F 77% 29.60 in 10.0 mi SW 19.6 mph 28.8 mph N/A   Overcast
5:15 AM 62.6 °F 55.4 °F 77% 29.60 in 10.0 mi SW 18.4 mph - N/A   Mostly Cloudy
5:35 AM 62.6 °F 53.6 °F 72% 29.60 in 10.0 mi SW 17.3 mph - N/A   Mostly Cloudy
5:55 AM 60.8 °F 55.4 °F 82% 29.61 in 10.0 mi SW 13.8 mph - N/A   Overcast
6:15 AM 60.8 °F 53.6 °F 77% 29.61 in 10.0 mi SW 15.0 mph - N/A   Overcast
6:35 AM 60.8 °F 53.6 °F 77% 29.61 in 10.0 mi WSW 13.8 mph - N/A   Mostly Cloudy
6:55 AM 60.8 °F 53.6 °F 77% 29.62 in 10.0 mi WSW 11.5 mph - N/A   Partly Cloudy
7:15 AM 60.8 °F 53.6 °F 77% 29.62 in 10.0 mi West 13.8 mph - N/A   Clear
7:35 AM 60.8 °F 51.8 °F 72% 29.64 in 10.0 mi West 15.0 mph 21.9 mph N/A   Scattered Clouds
7:55 AM 60.8 °F 50.0 °F 68% 29.64 in 10.0 mi West 16.1 mph 25.3 mph N/A   Partly Cloudy
8:15 AM 60.8 °F 50.0 °F 68% 29.67 in 10.0 mi NW 16.1 mph 25.3 mph N/A   Scattered Clouds
8:35 AM 59.0 °F 48.2 °F 67% 29.67 in 10.0 mi WNW 19.6 mph 24.2 mph N/A   Scattered Clouds
8:55 AM 59.0 °F 46.4 °F 63% 29.68 in 10.0 mi West 15.0 mph 21.9 mph N/A   Clear
9:15 AM 59.0 °F 44.6 °F 59% 29.69 in 10.0 mi West 13.8 mph 19.6 mph N/A   Clear
9:35 AM 57.2 °F 42.8 °F 59% 29.69 in 10.0 mi West 16.1 mph 21.9 mph N/A   Clear
9:55 AM 60.8 °F 41.0 °F 48% 29.70 in 10.0 mi WNW 18.4 mph 24.2 mph N/A   Clear
10:15 AM 60.8 °F 41.0 °F 48% 29.70 in 10.0 mi WNW 18.4 mph 21.9 mph N/A   Clear
10:35 AM 59.0 °F 39.2 °F 48% 29.70 in 10.0 mi WNW 15.0 mph 21.9 mph N/A   Clear
11:15 AM 60.8 °F 42.8 °F 52% 29.71 in 10.0 mi West 12.7 mph 16.1 mph N/A   Clear
11:35 AM 60.8 °F 42.8 °F 52% 29.70 in 10.0 mi West 9.2 mph - N/A   Clear
11:55 AM 62.6 °F 42.8 °F 48% 29.70 in 10.0 mi West 13.8 mph 19.6 mph N/A   Clear
12:15 PM 62.6 °F 42.8 °F 48% 29.69 in 10.0 mi West 12.7 mph 18.4 mph N/A   Clear
12:35 PM 64.4 °F 39.2 °F 40% 29.69 in 10.0 mi WNW 17.3 mph - N/A   Clear
12:55 PM 64.4 °F 37.4 °F 37% 29.69 in 10.0 mi WNW 13.8 mph - N/A   Clear
1:15 PM 64.4 °F 39.2 °F 40% 29.68 in 10.0 mi West 15.0 mph 19.6 mph N/A   Clear
1:35 PM 64.4 °F 37.4 °F 37% 29.68 in 10.0 mi West 12.7 mph - N/A   Clear
1:55 PM 64.4 °F 39.2 °F 40% 29.68 in 10.0 mi West 13.8 mph 17.3 mph N/A   Clear
2:15 PM 64.4 °F 37.4 °F 37% 29.68 in 10.0 mi WNW 12.7 mph - N/A   Clear
2:55 PM 64.4 °F 39.2 °F 40% 29.67 in 10.0 mi West 11.5 mph - N/A   Clear
3:15 PM 64.4 °F 39.2 °F 40% 29.67 in 10.0 mi West 10.4 mph - N/A   Clear
3:35 PM 64.4 °F 39.2 °F 40% 29.67 in 10.0 mi West 10.4 mph 17.3 mph N/A   Clear
3:55 PM 64.4 °F 41.0 °F 42% 29.67 in 10.0 mi West 10.4 mph - N/A   Clear
4:15 PM 64.4 °F 39.2 °F 40% 29.67 in 10.0 mi WSW 11.5 mph - N/A   Clear
4:35 PM 62.6 °F 41.0 °F 45% 29.68 in 10.0 mi WSW 9.2 mph - N/A   Clear
5:15 PM 60.8 °F 44.6 °F 55% 29.68 in 10.0 mi WSW 6.9 mph - N/A   Clear
5:35 PM 60.8 °F 42.8 °F 52% 29.69 in 10.0 mi WSW 6.9 mph - N/A   Clear
5:55 PM 57.2 °F 42.8 °F 59% 29.69 in 10.0 mi WSW 8.1 mph - N/A   Clear
6:15 PM 57.2 °F 44.6 °F 63% 29.70 in 10.0 mi SW 12.7 mph - N/A   Clear
6:35 PM 59.0 °F 44.6 °F 59% 29.72 in 10.0 mi SW 15.0 mph - N/A   Clear
6:55 PM 57.2 °F 44.6 °F 63% 29.72 in 10.0 mi WSW 15.0 mph - N/A   Clear
7:15 PM 57.2 °F 44.6 °F 63% 29.73 in 10.0 mi WSW 13.8 mph - N/A   Clear
7:35 PM 57.2 °F 44.6 °F 63% 29.74 in 10.0 mi WSW 12.7 mph - N/A   Clear
7:55 PM 57.2 °F 44.6 °F 63% 29.74 in 10.0 mi WSW 12.7 mph - N/A   Clear
8:15 PM 57.2 °F 44.6 °F 63% 29.74 in 10.0 mi SW 13.8 mph - N/A   Clear
8:35 PM 57.2 °F 44.6 °F 63% 29.75 in 10.0 mi SW 13.8 mph - N/A   Clear
8:55 PM 57.2 °F 44.6 °F 63% 29.76 in 10.0 mi SW 13.8 mph - N/A   Clear
9:15 PM 57.2 °F 44.6 °F 63% 29.76 in 10.0 mi SW 16.1 mph - N/A   Clear
9:35 PM 57.2 °F 44.6 °F 63% 29.76 in 10.0 mi SW 16.1 mph - N/A   Clear
9:55 PM 57.2 °F 44.6 °F 63% 29.76 in 10.0 mi SW 18.4 mph 24.2 mph N/A   Clear
10:15 PM 57.2 °F 46.4 °F 67% 29.77 in 10.0 mi SW 17.3 mph 24.2 mph N/A   Clear
10:35 PM 59.0 °F 48.2 °F 67% 29.77 in 10.0 mi SW 15.0 mph - N/A   Clear
11:15 PM 59.0 °F 48.2 °F 67% 29.76 in 10.0 mi SW 21.9 mph 25.3 mph N/A   Clear
11:35 PM 59.0 °F 48.2 °F 67% 29.76 in 10.0 mi SW 19.6 mph 25.3 mph N/A   Clear
11:55 PM 59.0 °F 48.2 °F 67% 29.76 in 10.0 mi SW 17.3 mph 23.0 mph N/A   Clear